Terminal Aerodrome Forecast
Issued by NWS

Home | Current Version | Previous Version | Text Only | Print | Product List | Glossary On
Versions: 1 2 3 4 5 6 7 8 9 10 11 12 13
000
FTUS45 KRIW 292323
TAFPNA
TAF
KPNA 292323Z 3000/3024 29009KT P6SM VCTS SCT060CB BKN090
     FM300100 30008KT P6SM VCSH SCT060 BKN080
     FM300600 VRB05KT P6SM BKN080
     FM301500 29008KT P6SM SKC
     FM301900 30015G25KT P6SM FEW070
      AMD LTD TO CLD VIS AND WIND=

USA.gov is the U.S. government's official web portal to all federal, state and local government web resources and services.